Weather History for Forest City, IA

Change the Weather History Date:

Wednesday, April 2, 2014

  Actual Average Record
Temperature  
Mean Temperature 37 °F -  
Max Temperature 46 °F 50 °F 77 °F (2012)
Min Temperature 28 °F 29 °F 23 °F (2013)
Degree Days  
Heating Degree Days 28    
Moisture  
Dew Point 28 °F    
Average Humidity 72    
Maximum Humidity 100    
Minimum Humidity 49    
Precipitation  
Precipitation 0.01 in - - ()
Sea Level Pressure  
Sea Level Pressure 30.05 in    
Wind  
Wind Speed - (North)    
Max Wind Speed -    
Max Gust Speed -    
Visibility 10 miles    
Events Rain    
Averages and records for this station are not official NWS values.
T = Trace of Precipitation, MM = Missing Value Source: NWS Daily Summary

Daily Weather History Graph

Daily Weather History Graph

Search for Another Location

Airport:

Trip Planner

Search our weather history database for the weather conditions in past years. The results will help you decide how hot, cold, wet, or windy it might be!

Date:

Astronomy

Apr. 02, 2014 Rise Set
Actual Time 6:54 AM CDT 7:42 PM CDT
Civil Twilight 6:25 AM CDT 8:11 PM CDT
Nautical Twilight 5:51 AM CDT 8:45 PM CDT
Astronomical Twilight 5:16 AM CDT 9:21 PM CDT
Moon 8:34 AM CDT (4/2) 11:11 PM CDT (4/2)
Length of Visible Light 13h 45m
Length of Day
12h 47m
Waxing Crescent, 10% of the Moon is Illuminated
Apr 2
Waxing Crescent
Apr 7
First Quarter
Apr 15
Full
Apr 22
Last Quarter
Apr 29
New

Hourly Weather History & Observations

Time (CDT) Temp. Dew Point Humidity Pressure Visibility Wind Dir Wind Speed Gust Speed Precip Events Conditions
12:15 AM 30.2 °F 26.6 °F 86% 30.08 in 10.0 mi North - - N/A   Scattered Clouds
12:35 AM 28.4 °F 26.6 °F 93% 30.08 in 7.0 mi North - - N/A   Clear
12:55 AM 28.4 °F 26.6 °F 93% 30.10 in 7.0 mi North - - N/A   Clear
1:15 AM 28.4 °F 26.6 °F 93% 30.11 in 7.0 mi North - - N/A   Clear
1:35 AM 30.2 °F 28.4 °F 93% 30.12 in 10.0 mi North - - N/A   Mostly Cloudy
1:55 AM 30.2 °F 28.4 °F 93% 30.12 in 10.0 mi North - - N/A   Overcast
2:15 AM 30.2 °F 28.4 °F 93% 30.12 in 10.0 mi North - - N/A   Overcast
2:35 AM 30.2 °F 28.4 °F 93% 30.12 in 10.0 mi North - - N/A   Overcast
2:55 AM 30.2 °F 28.4 °F 93% 30.12 in 10.0 mi North - - N/A   Overcast
3:10 AM 30.2 °F 26.6 °F 86% 30.11 in 10.0 mi North - - N/A   Overcast
3:35 AM 28.4 °F 26.6 °F 93% 30.11 in 10.0 mi North - - N/A   Overcast
3:55 AM 28.4 °F 26.6 °F 93% 30.10 in 10.0 mi North - - N/A   Overcast
4:15 AM 28.4 °F 28.4 °F 100% 30.09 in 7.0 mi North - - N/A   Overcast
4:35 AM 28.4 °F 26.6 °F 93% 30.09 in 10.0 mi North - - N/A   Overcast
4:55 AM 28.4 °F 26.6 °F 93% 30.09 in 10.0 mi North - - N/A   Overcast
5:15 AM 28.4 °F 26.6 °F 93% 30.09 in 10.0 mi North - - N/A   Overcast
5:35 AM 28.4 °F 26.6 °F 93% 30.10 in 10.0 mi North - - N/A   Overcast
5:55 AM 28.4 °F 26.6 °F 93% 30.12 in 10.0 mi North - - N/A   Overcast
6:15 AM 28.4 °F 26.6 °F 93% 30.13 in 10.0 mi North - - N/A   Overcast
7:35 AM 28.4 °F 26.6 °F 93% 30.12 in 10.0 mi North - - N/A   Overcast
7:55 AM 30.2 °F 26.6 °F 86% 30.12 in 10.0 mi North - - N/A   Mostly Cloudy
8:15 AM 30.2 °F 26.6 °F 86% 30.11 in 7.0 mi North - - N/A   Scattered Clouds
8:35 AM 30.2 °F 26.6 °F 86% 30.10 in 10.0 mi North - - N/A   Clear
8:55 AM 32.0 °F 26.6 °F 80% 30.10 in 10.0 mi North - - N/A   Clear
9:15 AM 32.0 °F 26.6 °F 80% 30.11 in 10.0 mi North - - N/A   Clear
9:35 AM 32.0 °F 26.6 °F 80% 30.12 in 10.0 mi North - - N/A   Clear
9:55 AM 33.8 °F 24.8 °F 70% 30.12 in 10.0 mi North - - N/A   Clear
10:15 AM 33.8 °F 26.6 °F 75% 30.13 in 10.0 mi North - - N/A   Clear
10:35 AM 35.6 °F 26.6 °F 70% 30.13 in 10.0 mi North - - N/A   Clear
10:55 AM 33.8 °F 24.8 °F 70% 30.12 in 10.0 mi North - - N/A   Clear
11:35 AM 37.4 °F 26.6 °F 65% 30.10 in 10.0 mi North - - N/A   Clear
11:55 AM 39.2 °F 26.6 °F 61% 30.10 in 10.0 mi North - - N/A   Clear
12:15 PM 39.2 °F 26.6 °F 61% 30.09 in 10.0 mi North - - N/A   Clear
12:55 PM 39.2 °F 26.6 °F 61% 30.09 in 10.0 mi North - - N/A   Clear
1:15 PM 41.0 °F 28.4 °F 61% 30.07 in 10.0 mi North - - N/A   Clear
1:35 PM 41.0 °F 28.4 °F 61% 30.07 in 10.0 mi North - - N/A   Clear
1:55 PM 42.8 °F 28.4 °F 57% 30.06 in 10.0 mi North - - N/A   Scattered Clouds
2:15 PM 44.6 °F 28.4 °F 53% 30.05 in 10.0 mi North - - N/A   Scattered Clouds
2:35 PM 44.6 °F 30.2 °F 57% 30.04 in 10.0 mi North - - N/A   Scattered Clouds
2:55 PM 44.6 °F 28.4 °F 53% 30.04 in 10.0 mi North - - N/A   Clear
3:15 PM 44.6 °F 28.4 °F 53% 30.03 in 10.0 mi North - - N/A   Scattered Clouds
3:35 PM 44.6 °F 30.2 °F 57% 30.02 in 10.0 mi North - - N/A   Mostly Cloudy
3:55 PM 44.6 °F 30.2 °F 57% 30.02 in 10.0 mi North - - N/A   Mostly Cloudy
4:15 PM 44.6 °F 28.4 °F 53% 30.01 in 10.0 mi North - - N/A   Overcast
4:35 PM 46.4 °F 28.4 °F 50% 29.99 in 10.0 mi North - - N/A   Scattered Clouds
4:55 PM 44.6 °F 28.4 °F 53% 29.99 in 10.0 mi North - - N/A   Mostly Cloudy
5:15 PM 44.6 °F 28.4 °F 53% 29.99 in 10.0 mi North - - N/A   Overcast
5:35 PM 44.6 °F 28.4 °F 53% 29.99 in 10.0 mi North - - N/A   Overcast
5:55 PM 44.6 °F 26.6 °F 49% 29.97 in 10.0 mi North - - N/A   Overcast
6:15 PM 44.6 °F 26.6 °F 49% 29.98 in 10.0 mi North - - N/A   Overcast
6:35 PM 44.6 °F 28.4 °F 53% 29.97 in 10.0 mi North - - N/A   Overcast
6:55 PM 44.6 °F 26.6 °F 49% 29.98 in 10.0 mi North - - N/A   Overcast
7:15 PM 44.6 °F 28.4 °F 53% 29.97 in 10.0 mi North - - N/A   Overcast
7:35 PM 42.8 °F 30.2 °F 61% 29.97 in 10.0 mi North - - N/A Rain Rain
7:55 PM 42.8 °F 30.2 °F 61% 29.95 in 10.0 mi North - - N/A   Overcast
8:15 PM 42.8 °F 30.2 °F 61% 29.94 in 10.0 mi North - - N/A   Overcast
8:35 PM 42.8 °F 30.2 °F 61% 29.95 in 10.0 mi North - - N/A   Overcast
8:55 PM 42.8 °F 30.2 °F 61% 29.94 in 10.0 mi North - - N/A   Overcast
9:15 PM 42.8 °F 30.2 °F 61% 29.94 in 10.0 mi North - - N/A   Overcast
9:35 PM 41.0 °F 32.0 °F 70% 29.94 in 10.0 mi North - - N/A Rain Light Rain
9:55 PM 41.0 °F 32.0 °F 70% 29.93 in 10.0 mi North - - N/A Rain Light Rain
10:15 PM 41.0 °F 32.0 °F 70% 29.93 in 10.0 mi North - - N/A   Overcast
10:35 PM 41.0 °F 32.0 °F 70% 29.94 in 10.0 mi North - - N/A   Drizzle
10:55 PM 39.2 °F 32.0 °F 75% 29.94 in 7.0 mi North - - 0.01 in Rain Light Rain
11:15 PM 39.2 °F 32.0 °F 75% 29.95 in 10.0 mi North - - N/A   Drizzle
11:35 PM 39.2 °F 32.0 °F 75% 29.94 in 10.0 mi North - - N/A Rain Light Rain